Date String (YYYY-MM-DD hh:mm:ss) UTC,Instrument flags,Ambient pressure (hPa),Sample flow (lpm),Bypass flow (lpm),Sample temperature (°C),Ambient temperature (°C),ASC tube jacket temperature (°C),LED temperature (°C),Box temperature (°C),Sample RH (%),Span deviation,Mass concentration (μg/m³),Mass concentration (μg/m³),Mass concentration (μg/m³)
DateTimeUTC,F1_M11,P_M11,Q1_M11,Q2_M11,T1_M11,T2_M11,T3_M11,T4_M11,T5_M11,U1_M11,ZSPAN_M11,X2_M11,X0_M11,X1_M11
2022-01-30 10:00:00,,0827.0,5.01,0.00,21.9,21.3,00.0,30.9,23.6,05.8,0000.0,0002.27,0003.11,0002.13
2022-01-30 10:01:00,,0827.0,5.00,0.00,21.9,21.3,00.0,30.9,23.6,05.9,0000.0,0002.31,0003.22,0002.16
2022-01-30 10:02:00,,0827.0,5.00,0.00,21.9,21.3,00.0,30.9,23.6,06.0,0000.0,0002.36,0003.30,0002.20
2022-01-30 10:03:00,,0827.0,4.98,0.00,21.9,21.2,00.0,30.9,23.6,06.0,0000.0,0002.50,0003.50,0002.31
2022-01-30 10:04:00,,0827.0,5.01,0.00,21.9,21.2,00.0,30.9,23.6,05.9,0000.0,0002.67,0003.75,0002.46
2022-01-30 10:05:00,,0827.0,5.02,0.00,21.9,21.5,00.0,30.9,23.7,05.9,0000.0,0002.83,0004.92,0002.59
2022-01-30 10:06:00,,0827.0,5.00,0.00,22.0,22.2,00.0,31.0,23.9,05.8,0000.0,0002.80,0005.17,0002.57
2022-01-30 10:07:00,,0826.9,4.99,0.00,22.2,23.0,00.0,31.0,24.2,05.7,0000.0,0002.78,0005.01,0002.57
2022-01-30 10:08:00,,0826.9,5.00,0.00,22.3,22.9,00.0,31.0,24.3,05.6,0000.0,0002.77,0005.00,0002.56
2022-01-30 10:09:00,,0826.9,5.00,0.00,22.3,22.8,00.0,31.1,24.3,05.6,0000.0,0002.73,0004.94,0002.52
2022-01-30 10:10:00,,0826.9,5.00,0.00,22.3,22.6,00.0,31.1,24.2,05.7,0000.0,0002.82,0005.02,0002.59
2022-01-30 10:11:00,,0826.9,5.00,0.00,22.3,22.4,00.0,31.1,24.2,05.6,0000.0,0002.92,0004.85,0002.69
2022-01-30 10:12:00,,0827.0,5.00,0.00,22.3,22.3,00.0,31.1,24.2,05.5,0000.0,0002.91,0004.73,0002.68
2022-01-30 10:13:00,,0827.0,5.00,0.00,22.3,22.2,00.0,31.1,24.2,05.5,0000.0,0002.84,0004.64,0002.62
2022-01-30 10:14:00,,0826.9,5.02,0.00,22.3,22.1,00.0,31.2,24.2,05.6,0000.0,0002.74,0004.47,0002.55
2022-01-30 10:15:00,,0826.9,4.99,0.00,22.3,22.0,00.0,31.2,24.2,05.7,0000.0,0002.64,0005.15,0002.43
2022-01-30 10:16:00,,0826.9,5.01,0.00,22.3,22.0,00.0,31.2,24.2,05.6,0000.0,0002.45,0004.50,0002.25
2022-01-30 10:17:00,,0826.9,4.98,0.00,22.3,21.9,00.0,31.2,24.2,05.6,0000.0,0002.30,0004.02,0002.08
2022-01-30 10:18:00,,0826.9,5.01,0.00,22.3,21.9,00.0,31.2,24.2,05.5,0000.0,0002.18,0004.30,0001.94
2022-01-30 10:19:00,,0826.9,5.01,0.00,22.3,21.8,00.0,31.2,24.1,05.5,0000.0,0002.01,0004.12,0001.79
2022-01-30 10:20:00,,0826.8,4.99,0.00,22.3,21.8,00.0,31.2,24.1,05.2,0000.0,0001.84,0003.94,0001.64
2022-01-30 10:21:00,,0826.8,4.99,0.00,22.3,21.8,00.0,31.2,24.1,05.0,0000.0,0001.63,0003.76,0001.43
2022-01-30 10:22:00,,0826.8,5.01,0.00,22.3,21.7,00.0,31.2,24.1,05.0,0000.0,0001.44,0003.53,0001.25
2022-01-30 10:23:00,,0826.8,5.01,0.00,22.3,21.7,00.0,31.2,24.1,05.0,0000.0,0001.31,0003.37,0001.13
2022-01-30 10:24:00,,0826.8,4.99,0.00,22.3,21.7,00.0,31.2,24.0,05.1,0000.0,0001.22,0003.28,0001.04
2022-01-30 10:25:00,,0826.8,5.01,0.00,22.3,21.7,00.0,31.2,24.0,05.4,0000.0,0001.11,0003.16,0000.94
2022-01-30 10:26:00,,0826.8,5.00,0.00,22.3,21.7,00.0,31.2,24.0,05.3,0000.0,0001.01,0002.46,0000.85
2022-01-30 10:27:00,,0826.8,4.99,0.00,22.3,21.6,00.0,31.2,24.0,05.1,0000.0,0000.95,0001.83,0000.80
2022-01-30 10:28:00,,0826.7,5.01,0.00,22.2,21.6,00.0,31.2,24.0,05.0,0000.0,0000.91,0001.67,0000.77
2022-01-30 10:29:00,,0826.7,4.99,0.00,22.2,21.6,00.0,31.2,24.0,04.8,0000.0,0000.84,0001.18,0000.73
2022-01-30 10:30:00,,0826.7,4.99,0.00,22.2,21.6,00.0,31.2,23.9,04.6,0000.0,0000.84,0001.11,0000.72
2022-01-30 10:31:00,,0826.7,5.01,0.00,22.2,21.5,00.0,31.2,23.9,04.5,0000.0,0000.88,0001.17,0000.75
2022-01-30 10:32:00,,0826.7,5.01,0.00,22.2,21.5,00.0,31.2,23.9,04.5,0000.0,0000.88,0001.13,0000.77
2022-01-30 10:33:00,,0826.6,4.99,0.00,22.2,21.5,00.0,31.2,23.9,04.6,0000.0,0000.91,0001.27,0000.78
2022-01-30 10:34:00,,0826.6,5.01,0.00,22.1,21.5,00.0,31.2,23.9,04.6,0000.0,0000.94,0001.33,0000.80
2022-01-30 10:35:00,,0826.6,5.01,0.00,22.2,21.7,00.0,31.2,23.9,04.5,0000.0,0000.97,0001.35,0000.83
2022-01-30 10:36:00,,0826.6,5.00,0.00,22.3,22.4,00.0,31.2,24.2,04.4,0000.0,0001.00,0001.38,0000.86
2022-01-30 10:37:00,,0826.6,4.99,0.00,22.4,23.0,00.0,31.3,24.4,04.3,0000.0,0001.00,0001.38,0000.88
2022-01-30 10:38:00,,0826.6,5.01,0.00,22.5,22.9,00.0,31.3,24.4,04.3,0000.0,0001.02,0001.37,0000.91
2022-01-30 10:39:00,,0826.6,5.00,0.00,22.5,22.7,00.0,31.3,24.4,04.5,0000.0,0001.02,0001.35,0000.92
2022-01-30 10:40:00,,0826.6,5.00,0.00,22.5,22.5,00.0,31.3,24.3,04.3,0000.0,0001.05,0001.36,0000.95
2022-01-30 10:41:00,,0826.5,4.99,0.00,22.5,22.3,00.0,31.3,24.3,04.4,0000.0,0001.14,0001.46,0001.04
2022-01-30 10:42:00,,0826.5,4.99,0.00,22.5,22.2,00.0,31.3,24.2,04.5,0000.0,0001.27,0001.62,0001.15
2022-01-30 10:43:00,,0826.5,5.01,0.00,22.4,22.0,00.0,31.3,24.2,04.4,0000.0,0001.37,0001.73,0001.24
2022-01-30 10:44:00,,0826.5,5.00,0.00,22.4,21.9,00.0,31.3,24.1,04.7,0000.0,0001.41,0001.68,0001.29
2022-01-30 10:45:00,,0826.5,5.00,0.00,22.4,21.9,00.0,31.3,24.1,04.6,0000.0,0001.40,0001.64,0001.29
2022-01-30 10:46:00,,0826.5,5.01,0.00,22.4,21.8,00.0,31.3,24.1,04.5,0000.0,0001.45,0001.71,0001.33
2022-01-30 10:47:00,,0826.5,5.00,0.00,22.3,21.7,00.0,31.3,24.1,04.5,0000.0,0001.56,0001.84,0001.43
2022-01-30 10:48:00,,0826.5,5.00,0.00,22.3,21.7,00.0,31.3,24.1,04.5,0000.0,0001.69,0001.99,0001.55
2022-01-30 10:49:00,,0826.5,4.99,0.00,22.3,21.7,00.0,31.3,24.0,04.5,0000.0,0001.81,0002.15,0001.66
2022-01-30 10:50:00,,0826.5,5.01,0.00,22.3,21.7,00.0,31.3,24.0,04.6,0000.0,0001.91,0003.88,0001.75
2022-01-30 10:51:00,,0826.5,5.00,0.00,22.3,21.6,00.0,31.3,24.0,04.6,0000.0,0001.92,0004.02,0001.75
2022-01-30 10:52:00,,0826.5,5.00,0.00,22.3,21.6,00.0,31.3,24.0,04.5,0000.0,0001.88,0003.98,0001.70
2022-01-30 10:53:00,,0826.5,5.00,0.00,22.2,21.6,00.0,31.3,24.0,04.5,0000.0,0001.79,0003.84,0001.65
2022-01-30 10:54:00,,0826.5,5.00,0.00,22.2,21.5,00.0,31.3,23.9,04.6,0000.0,0001.79,0003.82,0001.64
2022-01-30 10:55:00,,0826.5,5.00,0.00,22.2,21.5,00.0,31.3,23.9,04.6,0000.0,0001.82,0003.86,0001.67
2022-01-30 10:56:00,,0826.5,4.99,0.00,22.2,21.5,00.0,31.2,23.9,04.7,0000.0,0001.95,0004.05,0001.79
2022-01-30 10:57:00,,0826.5,5.00,0.00,22.2,21.4,00.0,31.2,23.8,05.1,0000.0,0001.93,0004.03,0001.77
2022-01-30 10:58:00,,0826.4,5.01,0.00,22.1,21.4,00.0,31.2,23.8,05.4,0000.0,0001.82,0003.90,0001.67
2022-01-30 10:59:00,,0826.4,5.00,0.00,22.1,21.5,00.0,31.2,23.8,04.8,0000.0,0001.74,0003.82,0001.58
